WB4FAY-4 Weather Reports


Display with metric or nautical units.
time (UTC)temp
F
wind
direction
speed
MPH
gust
MPH
rain 1hr
in
rain 24hr
in
rain mn
in
humidity
%
barometer
mb
20260904073517 81 0 0.0 0.0 0.00 0.00 0.00 80 1016.7
20260904073017 81 0 0.0 0.0 0.00 0.00 0.00 80 1016.7
20260904072517 80 0 0.0 0.0 0.00 0.00 0.00 80 1016.6
20260904072017 80 0 0.0 0.0 0.00 0.00 0.00 80 1016.6
20260904071517 80 35 0.0 1.0 0.00 0.00 0.00 80 1016.6
20260904071017 80 0 0.0 0.0 0.00 0.00 0.00 80 1016.5
20260904070517 80 95 0.0 3.0 0.00 0.00 0.00 80 1016.5
20260904070017 80 88 0.0 3.0 0.00 0.00 0.00 80 1016.5
20260904065517 80 126 1.0 2.0 0.00 0.00 0.00 80 1016.5
20260904065017 81 136 0.0 2.0 0.00 0.00 0.00 80 1016.6
20260904064517 80 88 2.0 3.0 0.00 0.00 0.00 80 1016.5
20260904064017 80 97 1.0 5.0 0.00 0.00 0.00 81 1016.5
20260904063516 80 93 1.0 3.0 0.00 0.00 0.00 81 1016.6
20260904063017 80 75 0.0 2.0 0.00 0.00 0.00 81 1016.6
20260904062516 80 96 1.0 4.0 0.00 0.00 0.00 81 1016.7
20260904062017 80 52 0.0 1.0 0.00 0.00 0.00 82 1016.7
20260904061517 80 0 0.0 0.0 0.00 0.00 0.00 82 1016.7
20260904061017 80 0 0.0 0.0 0.00 0.00 0.00 82 1016.6
20260904060517 80 0 0.0 0.0 0.00 0.00 0.00 82 1016.7
20260904060017 80 0 0.0 0.0 0.00 0.00 0.00 82 1016.7
20260904055518 80 0 0.0 0.0 0.00 0.00 0.00 82 1016.7
20260904055017 80 0 0.0 0.0 0.00 0.00 0.00 81 1016.7
20260904054517 81 0 0.0 0.0 0.00 0.00 0.00 81 1016.7
20260904054017 81 0 0.0 0.0 0.00 0.00 0.00 81 1016.6
20260904053517 81 0 0.0 0.0 0.00 0.00 0.00 81 1016.7
20260904053017 80 0 0.0 0.0 0.00 0.00 0.00 81 1016.7
20260904052516 81 0 0.0 0.0 0.00 0.00 0.00 80 1016.8
20260904052017 81 0 0.0 0.0 0.00 0.00 0.00 80 1016.9
20260904051517 81 0 0.0 0.0 0.00 0.00 0.00 80 1016.8
20260904051017 81 0 0.0 0.0 0.00 0.00 0.00 79 1016.7
20260904050517 81 0 0.0 0.0 0.00 0.00 0.00 79 1016.7
20260904050017 81 0 0.0 0.0 0.00 0.00 0.00 78 1016.7
20260904045517 82 0 0.0 0.0 0.00 0.00 0.00 78 1016.7
20260904045017 82 0 0.0 0.0 0.00 0.00 0.00 78 1016.8
20260904044517 82 0 0.0 0.0 0.00 0.00 0.00 77 1016.7
20260904044017 82 0 0.0 0.0 0.00 0.00 0.00 77 1016.7
20260904043517 82 0 0.0 0.0 0.00 0.00 0.00 77 1016.7
20260904043017 82 0 0.0 0.0 0.00 0.00 0.00 76 1016.6
20260904042518 82 0 0.0 0.0 0.00 0.00 0.00 76 1016.7
20260904042017 83 0 0.0 0.0 0.00 0.00 0.00 76 1016.8
20260904041517 82 0 0.0 0.0 0.00 0.00 0.00 75 1016.8
20260904041017 83 0 0.0 0.0 0.00 0.00 0.00 75 1016.9
20260904040517 83 0 0.0 0.0 0.00 0.00 0.00 75 1016.8
20260904040017 83 0 0.0 0.0 0.00 0.00 0.00 74 1016.8
20260904035518 83 0 0.0 0.0 0.00 0.00 0.00 74 1016.9
20260904035017 83 0 0.0 0.0 0.00 0.00 0.00 73 1016.8
20260904034518 84 0 0.0 0.0 0.00 0.00 0.00 73 1016.8
20260904034017 84 0 0.0 0.0 0.00 0.00 0.00 72 1016.8
20260904033517 84 0 0.0 0.0 0.00 0.00 0.00 72 1016.9
20260904033017 84 0 0.0 0.0 0.00 0.00 0.00 72 1016.9
20260904032517 84 0 0.0 0.0 0.00 0.00 0.00 71 1016.9
20260904032018 84 0 0.0 0.0 0.00 0.00 0.00 71 1016.9
20260904031517 84 116 0.0 2.0 0.00 0.00 0.00 72 1016.9
20260904031017 84 0 0.0 0.0 0.00 0.00 0.00 72 1016.8
20260904030518 84 0 0.0 0.0 0.00 0.00 0.00 72 1016.8
20260904030017 84 0 0.0 0.0 0.00 0.00 0.00 72 1016.9
20260904025517 84 0 0.0 0.0 0.00 0.00 0.00 71 1016.9
20260904025017 84 0 0.0 0.0 0.00 0.00 0.00 71 1017.0
20260904024517 84 0 0.0 0.0 0.00 0.00 0.00 70 1017.0
20260904024017 84 0 0.0 0.0 0.00 0.00 0.00 70 1017.0
20260904023517 84 0 0.0 0.0 0.00 0.00 0.00 70 1017.0
20260904023017 84 90 0.0 1.0 0.00 0.00 0.00 70 1017.0
20260904022517 84 82 0.0 2.0 0.00 0.00 0.00 70 1016.9
20260904022017 85 0 0.0 0.0 0.00 0.00 0.00 70 1016.9
20260904021517 85 0 0.0 0.0 0.00 0.00 0.00 69 1016.9
20260904021017 85 212 0.0 1.0 0.00 0.00 0.00 70 1016.8
20260904020517 85 226 0.0 1.0 0.00 0.00 0.00 69 1016.8
20260904020018 85 0 0.0 0.0 0.00 0.00 0.00 69 1016.7
20260904015517 85 0 0.0 0.0 0.00 0.00 0.00 69 1016.7
20260904015017 85 0 0.0 0.0 0.00 0.00 0.00 68 1016.7
20260904014517 85 0 0.0 0.0 0.00 0.00 0.00 68 1016.7
20260904014018 86 0 0.0 0.0 0.00 0.00 0.00 67 1016.6
20260904013517 86 0 0.0 0.0 0.00 0.00 0.00 67 1016.5
20260904013017 86 0 0.0 0.0 0.00 0.00 0.00 66 1016.5
20260904012518 87 0 0.0 0.0 0.00 0.00 0.00 66 1016.4
20260904012017 87 0 0.0 0.0 0.00 0.00 0.00 65 1016.4
20260904011517 87 0 0.0 0.0 0.00 0.00 0.00 64 1016.4
20260904011017 87 0 0.0 0.0 0.00 0.00 0.00 64 1016.4
20260904010517 87 0 0.0 0.0 0.00 0.00 0.00 64 1016.2
20260904010017 87 0 0.0 0.0 0.00 0.00 0.00 63 1016.2
20260904005517 88 0 0.0 0.0 0.00 0.00 0.00 63 1016.1
20260904005017 88 0 0.0 0.0 0.00 0.00 0.00 62 1016.1
20260904004517 88 0 0.0 0.0 0.00 0.00 0.00 61 1016.1
20260904004017 89 0 0.0 0.0 0.00 0.00 0.00 60 1016.1
20260904003517 89 0 0.0 0.0 0.00 0.00 0.00 59 1016.1
20260904003016 89 0 0.0 0.0 0.00 0.00 0.00 59 1016.0
20260904002517 89 0 0.0 0.0 0.00 0.00 0.00 58 1016.0
20260904002017 90 209 0.0 1.0 0.00 0.00 0.00 58 1015.8
20260904001517 89 241 0.0 4.0 0.00 0.00 0.00 58 1015.8
20260904001017 89 0 0.0 0.0 0.00 0.00 0.00 59 1015.8
20260904000517 89 0 0.0 0.0 0.00 0.00 0.00 59 1015.7
20260904000017 89 0 0.0 0.0 0.00 0.00 0.00 58 1015.7
20260903235517 90 0 0.0 0.0 0.00 0.00 0.00 58 1015.7
20260903235017 90 0 0.0 0.0 0.00 0.00 0.00 57 1015.6
20260903234516 90 0 0.0 0.0 0.00 0.00 0.00 56 1015.6
20260903234017 91 0 0.0 0.0 0.00 0.00 0.00 56 1015.5
20260903233517 91 0 0.0 0.0 0.00 0.00 0.00 56 1015.5
20260903233017 91 0 0.0 0.0 0.00 0.00 0.00 55 1015.6
20260903232517 91 0 0.0 0.0 0.00 0.00 0.00 55 1015.6
20260903232018 92 0 0.0 0.0 0.00 0.00 0.00 55 1015.5
20260903231517 92 0 0.0 0.0 0.00 0.00 0.00 54 1015.5
20260903231017 92 120 0.0 2.0 0.00 0.00 0.00 53 1015.6
20260903230517 92 0 0.0 0.0 0.00 0.00 0.00 54 1015.6
20260903230017 92 45 0.0 1.0 0.00 0.00 0.00 53 1015.5
20260903225517 93 90 0.0 3.0 0.00 0.00 0.00 52 1015.4
20260903225017 93 97 0.0 2.0 0.00 0.00 0.00 51 1015.4
20260903224517 93 0 1.0 0.0 0.00 0.00 0.00 50 1015.3
20260903224017 94 102 0.0 3.0 0.00 0.00 0.00 49 1015.3
20260903223517 94 93 0.0 1.0 0.00 0.00 0.00 48 1015.3
20260903223017 95 64 0.0 6.0 0.00 0.00 0.00 47 1015.4
20260903222517 95 82 2.0 5.0 0.00 0.00 0.00 46 1015.4
20260903222018 95 65 0.0 6.0 0.00 0.00 0.00 47 1015.3
20260903221517 95 65 0.0 4.0 0.00 0.00 0.00 45 1015.2
20260903221018 95 11 1.0 2.0 0.00 0.00 0.00 45 1015.1
20260903220517 95 120 0.0 4.0 0.00 0.00 0.00 45 1015.1
20260903220017 95 80 0.0 5.0 0.00 0.00 0.00 45 1015.1
20260903215517 95 66 2.0 4.0 0.00 0.00 0.00 45 1015.0
20260903215017 96 92 0.0 1.0 0.00 0.00 0.00 46 1014.9
20260903214517 96 83 0.0 4.0 0.00 0.00 0.00 44 1014.9
20260903214017 96 71 0.0 7.0 0.00 0.00 0.00 45 1014.9
20260903213517 97 66 0.0 4.0 0.00 0.00 0.00 44 1014.9
20260903213017 97 69 2.0 9.0 0.00 0.00 0.00 42 1015.0
20260903212517 97 185 3.0 2.0 0.00 0.00 0.00 41 1015.0
20260903212017 97 188 0.0 6.0 0.00 0.00 0.00 41 1015.0
20260903211517 98 333 0.0 5.0 0.00 0.00 0.00 41 1015.0
20260903211017 98 172 0.0 7.0 0.00 0.00 0.00 39 1015.1
20260903210517 99 76 2.0 5.0 0.00 0.00 0.00 39 1015.2
20260903210017 99 80 0.0 6.0 0.00 0.00 0.00 39 1015.2
20260903205517 99 49 3.0 4.0 0.00 0.00 0.00 40 1015.2
20260903205017 98 96 1.0 5.0 0.00 0.00 0.00 40 1015.3
20260903204517 98 157 1.0 5.0 0.00 0.00 0.00 41 1015.3
20260903204017 97 35 2.0 3.0 0.00 0.00 0.00 42 1015.4
20260903203517 96 49 2.0 8.0 0.00 0.00 0.00 43 1015.4
20260903203017 96 76 2.0 4.0 0.00 0.00 0.00 43 1015.5
20260903202517 96 45 0.0 6.0 0.00 0.00 0.00 44 1015.6
20260903202017 96 83 3.0 5.0 0.00 0.00 0.00 43 1015.6
20260903201518 97 71 0.0 6.0 0.00 0.00 0.00 42 1015.7
20260903201017 97 85 0.0 6.0 0.00 0.00 0.00 42 1015.8
20260903200517 97 360 0.0 6.0 0.00 0.00 0.00 43 1016.0
20260903200017 97 339 0.0 6.0 0.00 0.00 0.00 42 1016.0
20260903195516 97 102 0.0 8.0 0.00 0.00 0.00 43 1016.1
20260903195017 97 89 4.0 7.0 0.00 0.00 0.00 43 1016.2
20260903194517 98 75 2.0 7.0 0.00 0.00 0.00 41 1016.2
20260903194017 98 92 5.0 10.0 0.00 0.00 0.00 42 1016.2
20260903193517 98 100 3.0 8.0 0.00 0.00 0.00 41 1016.4
20260903193017 98 34 1.0 8.0 0.00 0.00 0.00 40 1016.5
20260903192517 97 88 0.0 7.0 0.00 0.00 0.00 41 1016.5
20260903192017 97 100 2.0 5.0 0.00 0.00 0.00 42 1016.6
20260903191517 97 106 1.0 5.0 0.00 0.00 0.00 41 1016.6
20260903191017 97 86 0.0 6.0 0.00 0.00 0.00 40 1016.7
20260903190517 97 83 4.0 8.0 0.00 0.00 0.00 40 1016.8
20260903190016 97 107 1.0 8.0 0.00 0.00 0.00 40 1016.8
20260903185518 97 44 1.0 9.0 0.00 0.00 0.00 42 1016.9
20260903185017 97 42 1.0 9.0 0.00 0.00 0.00 41 1016.8
20260903184517 97 100 6.0 8.0 0.00 0.00 0.00 42 1016.8
20260903184018 97 35 6.0 7.0 0.00 0.00 0.00 41 1016.9
20260903183517 97 143 2.0 9.0 0.00 0.00 0.00 42 1017.0
20260903183017 97 83 4.0 11.0 0.00 0.00 0.00 42 1016.9
20260903182517 97 75 3.0 9.0 0.00 0.00 0.00 41 1017.0
20260903182018 97 104 3.0 10.0 0.00 0.00 0.00 41 1017.1
20260903181517 97 31 5.0 5.0 0.00 0.00 0.00 41 1017.2
20260903181017 97 52 0.0 13.0 0.00 0.00 0.00 41 1017.2
20260903180518 97 64 5.0 5.0 0.00 0.00 0.00 41 1017.2
20260903180017 97 78 3.0 7.0 0.00 0.00 0.00 41 1017.3
20260903175517 97 137 2.0 7.0 0.00 0.00 0.00 41 1017.3
20260903175022 97 90 2.0 10.0 0.00 0.00 0.00 42 1017.3
20260903174517 97 54 3.0 7.0 0.00 0.00 0.00 43 1017.4
20260903174017 97 58 0.0 7.0 0.00 0.00 0.00 43 1017.4
20260903173517 97 27 7.0 8.0 0.00 0.00 0.00 43 1017.5
20260903173017 97 79 2.0 5.0 0.00 0.00 0.00 43 1017.6
20260903172517 96 79 2.0 10.0 0.00 0.00 0.00 43 1017.6
20260903172017 96 97 5.0 7.0 0.00 0.00 0.00 44 1017.6
20260903171517 96 114 0.0 6.0 0.00 0.00 0.00 43 1017.7
20260903171017 96 95 3.0 8.0 0.00 0.00 0.00 44 1017.8
20260903170517 95 116 3.0 6.0 0.00 0.00 0.00 45 1017.8
20260903170016 95 11 4.0 6.0 0.00 0.00 0.00 44 1017.8
20260903165517 95 52 2.0 6.0 0.00 0.00 0.00 45 1018.0
20260903165017 95 86 0.0 10.0 0.00 0.00 0.00 46 1017.9
20260903164517 95 93 1.0 9.0 0.00 0.00 0.00 45 1018.0
20260903164017 95 96 2.0 8.0 0.00 0.00 0.00 44 1018.1
20260903163518 95 51 0.0 5.0 0.00 0.00 0.00 45 1018.1
20260903163017 95 100 3.0 6.0 0.00 0.00 0.00 46 1018.2
20260903162517 95 352 0.0 4.0 0.00 0.00 0.00 47 1018.3
20260903162017 95 45 2.0 5.0 0.00 0.00 0.00 48 1018.3
20260903161517 94 83 1.0 6.0 0.00 0.00 0.00 48 1018.4
20260903161017 94 56 2.0 6.0 0.00 0.00 0.00 49 1018.4
20260903160517 94 71 0.0 6.0 0.00 0.00 0.00 50 1018.5
20260903160017 94 89 4.0 5.0 0.00 0.00 0.00 50 1018.5
20260903155517 94 55 5.0 5.0 0.00 0.00 0.00 50 1018.6
20260903155017 93 72 4.0 5.0 0.00 0.00 0.00 51 1018.6
20260903154517 93 49 4.0 5.0 0.00 0.00 0.00 51 1018.6
20260903154017 93 54 0.0 4.0 0.00 0.00 0.00 53 1018.7
20260903153517 92 0 0.0 0.0 0.00 0.00 0.00 53 1018.7
20260903153017 92 0 0.0 0.0 0.00 0.00 0.00 54 1018.7
20260903152517 92 83 0.0 2.0 0.00 0.00 0.00 54 1018.6
20260903152017 91 93 1.0 6.0 0.00 0.00 0.00 55 1018.6
20260903151517 91 103 2.0 3.0 0.00 0.00 0.00 54 1018.5
20260903151017 91 85 0.0 3.0 0.00 0.00 0.00 53 1018.5
20260903150517 91 83 1.0 6.0 0.00 0.00 0.00 54 1018.4
20260903150017 91 0 0.0 0.0 0.00 0.00 0.00 55 1018.4
20260903145517 90 0 0.0 0.0 0.00 0.00 0.00 58 1018.4
20260903145017 90 0 0.0 0.0 0.00 0.00 0.00 60 1018.4
20260903144518 89 92 0.0 4.0 0.00 0.00 0.00 61 1018.3
20260903144017 88 134 0.0 3.0 0.00 0.00 0.00 63 1018.3
20260903143517 88 148 2.0 3.0 0.00 0.00 0.00 63 1018.2
20260903143017 87 138 1.0 4.0 0.00 0.00 0.00 64 1018.2
20260903142517 87 144 1.0 3.0 0.00 0.00 0.00 66 1018.2
20260903142017 86 172 0.0 2.0 0.00 0.00 0.00 67 1018.2
20260903141517 86 121 2.0 4.0 0.00 0.00 0.00 67 1018.3
20260903141018 85 123 1.0 3.0 0.00 0.00 0.00 68 1018.3
20260903140517 85 144 1.0 3.0 0.00 0.00 0.00 70 1018.3
20260903140017 85 92 0.0 3.0 0.00 0.00 0.00 70 1018.3
20260903135517 84 75 1.0 3.0 0.00 0.00 0.00 70 1018.3
20260903135016 83 90 2.0 4.0 0.00 0.00 0.00 71 1018.3
20260903134517 83 103 0.0 2.0 0.00 0.00 0.00 73 1018.3
20260903134017 83 104 1.0 3.0 0.00 0.00 0.00 74 1018.4
20260903133517 82 103 2.0 2.0 0.00 0.00 0.00 75 1018.4
20260903133017 82 106 0.0 2.0 0.00 0.00 0.00 76 1018.5
20260903132517 81 104 0.0 3.0 0.00 0.00 0.00 78 1018.5
20260903132017 81 103 1.0 4.0 0.00 0.00 0.00 79 1018.5
20260903131517 80 0 0.0 0.0 0.00 0.00 0.00 81 1018.5
20260903131017 80 0 0.0 0.0 0.00 0.00 0.00 82 1018.5
20260903130517 80 0 0.0 0.0 0.00 0.00 0.00 83 1018.5
20260903130017 79 0 0.0 0.0 0.00 0.00 0.00 84 1018.4
20260903125517 79 0 0.0 0.0 0.00 0.00 0.00 85 1018.4
20260903125017 78 0 0.0 0.0 0.00 0.00 0.00 86 1018.4
20260903124518 78 0 0.0 0.0 0.00 0.00 0.00 87 1018.3
20260903124017 78 0 0.0 0.0 0.00 0.00 0.00 87 1018.3
20260903123517 77 0 0.0 0.0 0.00 0.00 0.00 87 1018.3
20260903123017 77 0 0.0 0.0 0.00 0.00 0.00 87 1018.3
20260903122518 77 0 0.0 0.0 0.00 0.00 0.00 87 1018.3
20260903122017 77 0 0.0 0.0 0.00 0.00 0.00 87 1018.2
20260903121517 77 0 0.0 0.0 0.00 0.00 0.00 87 1018.2
20260903121018 77 0 0.0 0.0 0.00 0.00 0.00 87 1018.2
20260903120517 77 0 0.0 0.0 0.00 0.00 0.00 87 1018.2
20260903120017 77 0 0.0 0.0 0.00 0.00 0.00 87 1018.2
20260903115517 77 0 0.0 0.0 0.00 0.00 0.00 87 1018.2
20260903115018 77 0 0.0 0.0 0.00 0.00 0.00 87 1018.2
20260903114517 77 0 0.0 0.0 0.00 0.00 0.00 86 1018.2
20260903114017 77 0 0.0 0.0 0.00 0.00 0.00 86 1018.1
20260903113517 77 0 0.0 0.0 0.00 0.00 0.00 86 1018.1
20260903113017 77 0 0.0 0.0 0.00 0.00 0.00 86 1018.0
20260903112517 77 0 0.0 0.0 0.00 0.00 0.00 86 1018.0
20260903112017 77 0 0.0 0.0 0.00 0.00 0.00 86 1018.0
20260903111517 77 0 0.0 0.0 0.00 0.00 0.00 86 1017.9
20260903111017 77 0 0.0 0.0 0.00 0.00 0.00 86 1017.8
20260903110517 77 0 0.0 0.0 0.00 0.00 0.00 85 1017.8
20260903110017 77 0 0.0 0.0 0.00 0.00 0.00 85 1017.7
20260903105517 77 0 0.0 0.0 0.00 0.00 0.00 85 1017.7
20260903105017 77 0 0.0 0.0 0.00 0.00 0.00 85 1017.7
20260903104517 77 0 0.0 0.0 0.00 0.00 0.00 85 1017.7
20260903104017 77 0 0.0 0.0 0.00 0.00 0.00 85 1017.6
20260903103517 77 0 0.0 0.0 0.00 0.00 0.00 85 1017.7
20260903103017 77 0 0.0 0.0 0.00 0.00 0.00 85 1017.7
20260903102518 77 0 0.0 0.0 0.00 0.00 0.00 85 1017.7
20260903102017 77 0 0.0 0.0 0.00 0.00 0.00 85 1017.7
20260903101517 77 0 0.0 0.0 0.00 0.00 0.00 85 1017.7
20260903101017 77 0 0.0 0.0 0.00 0.00 0.00 85 1017.7
20260903100517 77 0 0.0 0.0 0.00 0.00 0.00 85 1017.7
20260903100017 77 0 0.0 0.0 0.00 0.00 0.00 85 1017.7
20260903095517 77 0 0.0 0.0 0.00 0.00 0.00 84 1017.7
20260903095017 77 0 0.0 0.0 0.00 0.00 0.00 85 1017.8
20260903094517 77 0 0.0 0.0 0.00 0.00 0.00 85 1017.7
20260903094017 77 0 0.0 0.0 0.00 0.00 0.00 85 1017.7
20260903093517 77 0 0.0 0.0 0.00 0.00 0.00 85 1017.7
20260903093017 77 0 0.0 0.0 0.00 0.00 0.00 85 1017.7
20260903092517 78 0 0.0 0.0 0.00 0.00 0.00 85 1017.6
20260903092018 77 0 0.0 0.0 0.00 0.00 0.00 84 1017.6
20260903091517 77 0 0.0 0.0 0.00 0.00 0.00 84 1017.7
20260903091017 77 0 0.0 0.0 0.00 0.00 0.00 84 1017.6
20260903090517 78 0 0.0 0.0 0.00 0.00 0.00 84 1017.6
20260903090017 78 0 0.0 0.0 0.00 0.00 0.00 84 1017.6
20260903085517 78 0 0.0 0.0 0.00 0.00 0.00 83 1017.6
20260903085017 78 0 0.0 0.0 0.00 0.00 0.00 83 1017.6
20260903084517 78 0 0.0 0.0 0.00 0.00 0.00 83 1017.6
20260903084017 78 0 0.0 0.0 0.00 0.00 0.00 83 1017.6
20260903083517 78 0 0.0 0.0 0.00 0.00 0.00 83 1017.7
20260903083017 78 0 0.0 0.0 0.00 0.00 0.00 83 1017.7
20260903082517 78 0 0.0 0.0 0.00 0.00 0.00 83 1017.6
20260903082017 78 0 0.0 0.0 0.00 0.00 0.00 82 1017.6
20260903081517 78 0 0.0 0.0 0.00 0.00 0.00 82 1017.6
20260903081017 78 0 0.0 0.0 0.00 0.00 0.00 82 1017.5
20260903080517 78 0 0.0 0.0 0.00 0.00 0.00 82 1017.5
20260903080017 78 0 0.0 0.0 0.00 0.00 0.00 82 1017.4
20260903075517 78 0 0.0 0.0 0.00 0.00 0.00 82 1017.5
20260903075017 79 191 0.0 1.0 0.00 0.00 0.00 81 1017.5
20260903074517 79 0 0.0 0.0 0.00 0.00 0.00 81 1017.5
20260903074017 79 0 0.0 0.0 0.00 0.00 0.00 81 1017.6